WN8IZV Weather Reports


time (UTC)temp
F
wind
direction
speed
knots
gust
knots
rain 1hr
in
rain 24hr
in
rain mn
in
humidity
%
barometer
mb
20260503193112 63 229 3.5 7.8 0.00 0.00 0.00 68 1010.2
20260503191605 64 202 3.5 10.4 0.00 0.00 0.00 68 1010.2
20260503190054 66 251 1.7 13.0 0.00 0.00 0.00 69 1010.6
20260503184548 64 141 2.6 7.8 0.00 0.00 0.00 69 1010.8
20260503183106 64 347 2.6 10.4 0.00 0.00 0.00 69 1011.0
20260503181558 64 226 5.2 13.0 0.00 0.00 0.00 69 1011.2
20260503180041 62 319 1.7 7.0 0.00 0.00 0.00 69 1011.5
20260503174536 64 233 1.7 7.0 0.00 0.00 0.00 69 1011.6
20260503173034 63 269 2.6 11.3 0.00 0.00 0.00 69 1011.8
20260503171530 62 238 1.7 9.6 0.00 0.00 0.00 69 1012.1
20260503081507 36 259 0.0 0.0 0.00 0.00 0.00 68 1015.4
20260503071606 37 193 0.0 0.0 0.00 0.00 0.00 69 1015.6
20260503070112 37 217 0.0 0.0 0.00 0.00 0.00 69 1015.5
20260503060106 38 211 0.0 2.6 0.00 0.00 0.00 69 1015.8
20260503054543 38 171 0.0 0.0 0.00 0.00 0.00 69 1015.9
20260503053037 38 218 0.0 0.9 0.00 0.00 0.00 69 1016.0
20260503051534 38 212 0.0 0.0 0.00 0.00 0.00 69 1016.1
20260503050032 37 125 0.0 0.0 0.00 0.00 0.00 69 1016.3
20260503044535 37 284 0.0 0.9 0.00 0.00 0.00 68 1016.2
20260503043019 35 284 0.0 0.9 0.00 0.00 0.00 68 1016.2
20260503041515 35 284 0.0 0.0 0.00 0.00 0.00 68 1016.2
20260503040012 35 284 0.0 0.0 0.00 0.00 0.00 67 1016.3
20260503034508 35 284 0.0 0.0 0.00 0.00 0.00 67 1016.3
20260503033004 35 283 0.0 0.0 0.00 0.00 0.00 67 1016.4
20260503031503 36 284 0.0 0.0 0.00 0.00 0.00 67 1016.5
20260503030000 35 284 0.0 0.0 0.00 0.00 0.00 67 1016.5
20260503024600 35 284 0.0 0.0 0.00 0.00 0.00 66 1016.7
20260503023100 35 284 0.0 0.0 0.00 0.00 0.00 66 1016.9
20260503021554 36 283 0.0 0.0 0.00 0.00 0.00 66 1016.9
20260503020050 37 284 0.0 0.0 0.00 0.00 0.00 66 1016.7
20260503014545 37 284 0.0 0.0 0.00 0.00 0.00 66 1016.8
20260503013049 38 284 0.0 0.0 0.00 0.00 0.00 67 1016.8
20260503011538 40 284 0.0 0.0 0.00 0.00 0.00 67 1016.7
20260503010029 42 284 0.0 0.0 0.00 0.00 0.00 67 1016.7
20260503004527 44 284 0.0 0.9 0.00 0.01 0.00 68 1016.5
20260503003025 46 284 0.0 0.9 0.00 0.01 0.00 68 1016.5
20260503001524 47 262 0.0 1.7 0.00 0.01 0.00 69 1016.3
20260503000022 47 1 0.0 2.6 0.00 0.01 0.00 69 1016.4
20260502234522 48 236 0.0 2.6 0.00 0.01 0.00 69 1016.4
20260502233021 47 274 0.9 5.2 0.00 0.01 0.00 69 1016.5
20260502231520 47 276 0.9 4.3 0.00 0.01 0.00 69 1016.5
20260502230024 48 312 0.9 3.5 0.00 0.01 0.00 69 1016.5
20260502224518 47 323 1.7 3.5 0.00 0.01 0.00 69 1016.5
20260502223018 48 34 0.0 5.2 0.00 0.01 0.00 69 1016.5
20260502221517 48 333 0.9 5.2 0.00 0.01 0.00 69 1016.5
20260502220016 48 265 0.0 3.5 0.00 0.01 0.00 69 1016.6
20260502214524 47 333 1.7 6.1 0.00 0.01 0.00 69 1016.7
20260502213015 48 333 0.9 3.5 0.00 0.01 0.00 70 1016.6
20260502211525 48 264 1.7 6.1 0.00 0.01 0.00 70 1016.6
20260502210025 48 308 1.7 5.2 0.00 0.01 0.00 70 1016.7
20260502204513 48 328 2.6 5.2 0.00 0.01 0.00 70 1016.7
20260502203011 48 242 0.9 2.6 0.00 0.01 0.00 70 1016.8
20260502201512 48 278 0.9 5.2 0.00 0.01 0.00 70 1016.9
20260502200008 48 358 0.9 5.2 0.00 0.01 0.00 70 1017.2
20260502194506 48 309 0.9 4.3 0.00 0.01 0.00 70 1017.2